This is the latest recevied weather packets stored in our database for station/object W1REE. If no packets are shown the sender has not sent any weather packets the latest 10 day(s).
| Time | Temp. | Humidity | Pressure | Rain* | Wind** | Luminosity | Snow |
|---|---|---|---|---|---|---|---|
| 1778010200 | 3.89° C | 95% | 1014.5 hPa | 0 mm | - | 176 W/m² | - |
| 1778009894 | 3.89° C | 95% | 1014.4 hPa | 0 mm | - | 238 W/m² | - |
| 1778009593 | 3.89° C | 95% | 1014.5 hPa | 0 mm | - | 186 W/m² | - |
| 1778009291 | 3.89° C | 95% | 1014.4 hPa | 1.27 mm | - | 183 W/m² | - |
| 1778008989 | 3.89° C | 95% | 1014.5 hPa | 1.27 mm | - | 179 W/m² | - |
| 1778008686 | 3.89° C | 95% | 1014.4 hPa | 0 mm | - | 166 W/m² | - |
| 1778008384 | 3.89° C | 95% | 1014.2 hPa | 0 mm | - | 187 W/m² | - |
| 1778008080 | 3.89° C | 95% | 1014.4 hPa | 0 mm | - | 220 W/m² | - |
| 1778007776 | 3.89° C | 95% | 1014.5 hPa | 0 mm | - | 169 W/m² | - |
| 1778007472 | 3.89° C | 95% | 1014.5 hPa | 0 mm | - | 148 W/m² | - |
| 1778007169 | 3.89° C | 95% | 1014.7 hPa | 1.78 mm | - | 220 W/m² | - |
| 1778006865 | 3.89° C | 95% | 1014.7 hPa | 1.78 mm | - | 159 W/m² | - |
| 1778006562 | 3.89° C | 95% | 1014.7 hPa | 0 mm | - | 96 W/m² | - |
| 1778006258 | 3.89° C | 95% | 1014.8 hPa | 0 mm | - | 140 W/m² | - |
| 1778005956 | 3.89° C | 95% | 1014.7 hPa | 0 mm | - | 128 W/m² | - |
| 1778005653 | 3.89° C | 95% | 1014.8 hPa | 0 mm | - | 99 W/m² | - |
| 1778005349 | 3.89° C | 95% | 1015 hPa | 1.78 mm | - | 94 W/m² | - |
| 1778005046 | 3.89° C | 95% | 1015.1 hPa | 1.78 mm | - | 101 W/m² | - |
| 1778004744 | 3.89° C | 95% | 1015 hPa | 0 mm | - | 94 W/m² | - |
| 1778004440 | 3.89° C | 95% | 1015.1 hPa | 0 mm | - | 94 W/m² | - |
| 1778004137 | 3.89° C | 95% | 1015.2 hPa | 0 mm | - | 93 W/m² | - |
| 1778003833 | 3.89° C | 95% | 1015.2 hPa | 1.27 mm | - | 103 W/m² | - |
| 1778003529 | 3.89° C | 95% | 1015.4 hPa | 1.27 mm | - | 117 W/m² | - |
| 1778003226 | 3.89° C | 94% | 1015.4 hPa | 0 mm | - | 123 W/m² | - |
| 1778002922 | 3.89° C | 95% | 1015.6 hPa | 0 mm | - | 117 W/m² | - |
* Rain latest hour (hover to see other rain measurements)
** Current wind speed in m/s (hover to see current wind gust speed)